SCP
0 0 0 0 0 0 0 0 0 0 0 0 0 0 0 0 0 0 0 0 0 0 1 2 2 1 0 0 0 0 0 0 0 0 0 0 0 0 0 0 0 0 0 0
0 0 0 0 0 0 0 0 0 0 0 0 0 0 0 0 0 0 0 0 0 0 1 2 2 1 0 0 0 0 0 0 0 0 0 0 0 0 0 0 0 0 0 0
0 0 0 0 0 0 0 0 0 0 0 0 0 0 0 0 0 0 0 0 0 1 1 2 2 1 0 0 0 0 0 0 0 0 0 0 0 0 0 0 0 0 0 0
0 0 0 0 0 0 0 0 0 0 0 0 0 0 0 0 0 0 1 0 0 1 2 2 1 1 1 0 0 0 0 0 0 0 0 0 0 0 0 0 0 0 0 0
0 0 0 0 0 0 0 0 0 0 0 0 0 0 0 0 0 0 1 1 0 1 2 2 1 1 0 0 0 0 0 0 0 0 0 0 0 0 0 0 0 0 0 1
0 0 0 0 0 0 0 0 0 0 0 0 0 0 0 0 0 0 1 1 1 1 2 2 1 1 0 0 0 0 0 0 0 0 0 0 0 0 0 0 0 0 0 1
0 0 0 0 0 0 0 0 0 0 0 0 0 0 0 0 0 0 1 1 1 1 2 2 1 1 0 0 0 0 0 0 0 0 0 0 0 0 0 0 0 0 0 0
0 0 0 0 0 0 0 0 0 0 0 0 0 0 0 0 0 0 0 1 1 2 2 1 1 1 0 1 1 0 0 0 0 0 0 0 0 0 0 0 0 0 0 0
0 0 0 0 0 0 0 0 0 0 0 0 0 0 0 0 0 0 0 1 1 1 1 1 1 0 1 1 1 1 1 0 0 0 0 0 0 0 0 0 0 0 0 0
0 0 0 0 0 0 0 0 0 0 0 0 0 0 0 0 0 0 0 0 1 1 1 1 0 0 1 1 1 1 1 0 0 0 0 0 0 0 0 0 0 0 0 0
0 0 0 0 0 0 0 0 0 0 0 0 0 0 0 0 0 0 0 0 0 1 1 1 0 0 0 1 1 1 1 1 0 0 0 0 0 0 0 0 0 0 0 0
0 0 0 0 0 0 0 0 0 0 0 0 0 0 0 0 0 0 0 0 0 0 1 1 0 0 0 1 1 1 1 1 1 0 0 0 0 0 0 0 0 0 0 0
0 0 0 0 0 0 0 0 0 0 0 0 0 0 0 0 0 0 0 1 0 1 1 1 1 0 0 1 1 1 1 1 1 1 1 0 0 0 0 0 0 0 0 0
0 0 0 0 0 0 0 0 0 0 0 0 0 0 0 0 0 0 0 1 1 1 1 1 1 0 0 1 1 1 1 1 1 1 1 1 0 0 0 0 0 0 0 0
0 0 0 0 0 0 0 0 0 0 0 0 0 0 0 0 0 0 0 1 1 1 1 1 1 1 1 1 1 1 1 1 1 1 1 1 0 0 0 0 0 0 0 0
0 0 0 0 0 0 0 0 0 0 0 0 0 0 0 0 0 0 0 0 1 1 1 1 1 1 1 1 1 1 1 1 1 1 1 1 0 0 0 0 0 0 0 0
0 0 0 0 0 0 0 0 0 0 0 0 0 0 0 0 0 0 0 0 1 1 1 1 1 1 1 1 1 1 1 1 1 0 0 0 0 0 0 0 0 0 0 0
0 0 0 0 0 0 0 0 0 0 0 0 0 0 0 0 0 0 0 0 0 1 1 0 1 1 1 1 1 1 1 1 1 1 1 1 1 1 1 0 0 0 0 0
0 0 0 0 0 0 0 0 0 0 0 0 0 0 0 0 0 0 0 0 0 1 0 0 0 1 1 1 1 1 1 1 1 1 1 1 1 1 1 1 1 0 0 0
0 0 0 0 0 0 0 0 0 0 0 0 0 0 0 0 0 0 0 0 0 0 0 0 1 1 1 1 1 1 1 1 1 1 1 1 1 1 2 2 1 1 0 1
0 0 0 0 0 0 0 0 0 0 0 0 0 0 0 0 0 0 0 0 0 0 0 1 1 1 1 1 1 1 1 1 1 1 1 1 1 1 1 2 2 1 1 0
0 0 0 0 0 0 0 0 0 0 0 0 0 0 0 0 0 0 0 0 0 0 0 1 1 2 2 1 1 1 1 1 1 1 1 1 1 1 1 1 1 1 1 0
0 0 0 0 0 0 0 0 0 0 0 0 0 0 0 0 0 0 0 0 0 0 0 1 1 1 1 1 1 1 1 1 1 1 1 1 1 1 1 1 1 1 1 1
0 0 0 0 0 0 0 0 0 0 0 0 0 0 0 0 0 0 0 0 0 0 0 0 1 1 1 1 1 1 1 1 1 1 1 1 1 1 1 1 1 1 1 1
0 0 0 0 0 0 0 0 0 0 0 0 0 0 0 0 0 0 0 0 0 0 0 0 0 1 1 1 1 1 1 1 1 1 1 1 1 1 1 1 1 1 1 1
0 0 0 0 0 0 0 0 0 0 0 0 0 0 0 0 0 0 0 0 0 0 0 0 0 1 1 1 1 1 1 1 1 1 1 1 1 1 1 0 1 1 0 0
Wind_Speed
5 4 4 3 4 4 3 2 3 3 3 2 3 5 8 8 7 6 6 6 8 8 8 7 6 5 4 4 6 7 5 4 4 2 2 2 2 3 3 4 5 4 4 4
3 4 3 2 2 3 3 2 1 3 3 3 5 6 7 9 9 8 9 9 8 9 9 8 7 5 4 4 5 6 5 5 5 2 2 2 2 3 3 3 4 4 5 5
4 0 1 2 2 3 3 2 1 2 2 4 4 6 8 9 10 9 9 8 9 10 10 10 8 6 4 4 4 5 5 6 5 4 3 3 3 2 3 3 3 4 4 5
2 1 1 2 3 3 2 2 2 4 4 3 6 4 7 9 9 10 9 9 8 9 10 9 8 7 6 5 5 5 5 6 5 4 3 2 2 2 3 2 2 3 4 4
1 1 2 3 2 2 1 1 4 5 4 4 4 4 4 7 9 11 11 10 9 9 10 10 9 7 7 5 5 4 5 5 5 4 4 2 2 3 3 3 3 3 3 3
2 2 0 1 2 2 2 3 5 5 3 5 6 5 3 6 9 10 11 11 11 10 10 10 9 7 6 6 5 4 5 5 4 4 4 3 3 3 3 3 2 2 2 2
5 4 3 2 3 3 5 3 2 3 4 4 4 4 3 5 7 8 10 11 11 10 10 10 9 8 7 7 6 5 6 5 4 4 4 4 4 4 3 2 2 2 2 2
5 5 5 4 4 2 5 4 2 2 2 1 2 2 2 6 6 7 7 9 10 10 10 9 10 9 8 8 7 7 7 6 5 4 4 4 5 3 2 2 2 2 2 2
3 3 6 4 3 4 4 4 4 4 5 2 2 3 4 6 7 7 7 9 10 10 10 9 9 9 9 9 8 7 7 6 6 4 4 4 5 3 3 2 3 2 2 3
3 2 5 5 4 6 5 4 2 2 2 2 2 3 4 7 7 6 7 8 9 10 10 10 9 9 9 9 8 7 7 7 6 5 4 3 4 4 3 3 3 3 3 3
5 3 5 6 5 6 5 5 3 3 2 1 1 1 3 5 6 6 7 8 9 9 10 9 8 8 8 8 8 8 7 7 6 6 5 4 4 4 4 3 3 3 3 3
4 3 4 6 5 4 5 6 4 3 2 1 1 0 2 5 4 5 6 7 9 9 9 9 9 8 8 9 9 8 7 7 6 5 5 5 5 4 4 4 4 3 3 2
3 3 3 3 5 7 7 7 6 5 3 2 2 2 2 4 4 3 5 7 7 9 9 9 9 8 8 8 8 8 7 7 7 6 5 5 5 5 4 4 4 3 3 3
3 5 5 4 2 5 7 8 7 5 3 3 2 2 2 3 3 3 3 5 7 8 8 8 8 8 8 8 8 8 8 7 7 6 6 5 5 5 5 4 4 3 3 3
5 7 7 6 4 4 5 7 7 7 6 4 3 2 1 1 2 3 3 4 7 8 8 8 8 8 8 8 7 8 8 7 7 7 6 5 5 5 5 5 4 3 3 3
6 6 7 8 6 6 6 7 7 7 6 5 4 2 1 1 1 3 4 4 5 6 6 7 8 8 8 9 8 7 8 8 8 8 7 5 5 5 5 5 4 4 3 3
6 6 6 6 5 6 7 6 7 7 6 5 4 2 2 2 2 3 3 4 4 4 5 6 7 7 7 7 8 8 8 8 8 8 7 6 6 6 6 6 5 5 4 3
7 5 4 5 5 6 4 2 3 4 5 5 3 1 2 2 3 3 3 4 4 4 4 4 5 6 6 7 7 8 7 8 8 7 7 7 6 6 5 5 5 5 4 4
6 6 4 4 4 5 3 2 3 4 4 3 3 2 2 4 4 3 3 4 4 4 3 3 4 4 5 5 6 7 7 7 7 7 7 7 7 7 6 6 6 4 4 4
9 8 5 4 4 4 2 2 2 2 2 1 1 2 4 4 2 2 4 5 5 4 3 3 3 3 4 4 5 6 6 7 7 7 7 7 7 7 6 6 5 4 4 4
10 8 8 7 6 3 1 1 3 4 1 1 1 1 2 2 3 5 6 5 5 5 4 4 4 3 3 3 4 4 4 5 5 6 6 7 7 7 6 5 4 5 4 4
7 6 7 7 6 4 1 2 2 1 2 2 3 3 4 6 7 7 6 6 5 5 5 5 5 4 3 3 4 3 3 3 4 5 5 5 6 6 6 5 5 5 5 4
6 5 3 3 2 3 2 1 1 1 2 3 4 4 4 6 7 6 6 6 5 5 5 4 5 4 3 3 3 3 3 3 4 5 5 5 5 4 5 5 5 4 3 3
4 5 4 3 3 3 2 2 2 3 3 3 4 4 4 5 6 6 5 5 5 5 5 4 4 4 3 3 3 3 3 3 5 5 5 4 4 4 4 3 4 3 3 3
2 3 5 4 3 2 2 2 3 3 3 4 4 4 4 5 5 5 5 5 4 4 4 4 3 3 4 4 4 3 2 3 4 5 5 4 4 4 4 3 3 3 2 3
5 4 4 3 3 2 3 4 4 4 3 4 4 4 4 5 5 5 5 5 5 5 4 4 4 4 4 4 4 3 3 3 4 3 3 3 3 3 3 3 2 2 2 3
Wind_Direction
216 234 243 240 248 287 305 243 179 148 168 189 183 171 171 179 184 172 168 181 175 169 162 142 137 133 133 134 126 126 135 119 99 76 75 80 74 67 57 56 44 27 27 38
218 239 270 282 272 274 274 256 155 136 194 200 195 193 186 187 191 189 187 190 181 166 156 148 150 142 150 142 124 130 125 114 101 84 89 91 85 87 84 62 48 35 32 28
227 269 196 257 264 261 235 234 187 208 219 233 213 216 199 198 193 192 190 184 173 168 162 158 156 154 162 147 136 130 126 118 107 102 73 72 65 61 81 78 57 41 45 34
233 308 255 233 240 248 231 178 192 218 228 225 209 227 201 195 190 190 186 183 179 172 162 157 158 162 163 153 142 131 125 118 114 112 98 110 116 100 95 97 98 77 60 49
212 187 246 243 243 245 266 199 223 230 247 264 240 248 206 194 191 189 185 181 176 170 161 160 162 162 156 145 135 134 123 111 112 117 112 95 86 92 91 89 95 93 76 66
223 158 210 274 233 200 203 245 248 239 247 251 229 231 207 194 193 187 182 179 175 172 163 159 158 153 143 135 135 130 121 114 118 126 127 121 106 98 100 99 97 102 99 69
195 184 173 228 238 192 209 228 233 206 212 227 196 210 200 170 173 171 172 174 173 167 163 161 158 155 148 146 148 141 135 138 149 151 145 141 133 134 130 128 120 109 106 93
205 185 177 205 236 229 234 231 260 281 244 187 184 210 134 132 147 149 159 164 165 164 164 163 162 159 157 159 159 156 153 154 162 175 164 155 146 145 136 138 130 115 106 111
239 166 158 187 237 254 247 233 238 275 286 274 182 147 125 135 141 145 157 159 165 167 164 165 162 161 162 162 164 161 160 162 171 178 159 148 143 144 142 148 124 114 110 107
285 184 164 168 226 237 259 277 260 256 280 266 206 188 161 158 155 162 162 162 164 164 167 166 162 163 164 165 167 166 167 166 167 173 163 151 143 143 135 129 120 116 110 104
266 244 172 176 213 228 218 240 254 266 251 276 256 63 129 155 153 172 169 164 164 163 163 161 159 164 162 161 166 170 169 167 169 175 162 153 149 143 134 132 128 129 126 134
231 267 215 200 197 227 245 250 241 252 265 219 249 329 90 136 155 170 165 164 160 159 160 159 157 158 162 166 172 174 173 172 169 170 163 158 150 150 152 150 151 145 135 135
217 244 230 192 195 207 233 241 246 262 273 249 220 173 143 119 136 154 157 156 154 155 162 161 158 162 167 170 173 172 171 170 164 165 164 160 162 166 163 156 150 146 139 141
257 246 240 228 226 204 217 224 232 241 255 258 237 201 153 116 134 144 149 153 151 159 164 164 163 166 169 173 176 174 171 167 161 162 167 171 170 164 160 153 145 150 141 141
244 252 251 257 254 238 224 225 229 237 243 260 276 266 175 137 157 147 151 155 154 159 162 163 165 169 170 173 177 174 168 167 164 163 169 173 166 156 149 143 148 147 138 140
239 263 265 255 243 241 242 226 226 236 242 247 263 277 109 145 127 144 155 148 145 149 156 159 165 170 174 176 175 171 168 168 164 165 169 168 166 151 149 150 152 145 142 138
225 253 270 268 254 254 251 233 219 220 223 234 248 249 141 133 135 142 138 136 139 140 150 162 168 172 176 177 173 172 171 168 167 168 167 167 164 152 156 157 152 150 155 146
235 244 253 263 259 249 234 207 206 217 232 239 240 231 170 145 123 120 132 144 145 140 145 159 166 164 169 172 166 164 161 166 168 167 167 165 161 155 155 152 153 160 157 150
234 244 249 246 249 255 243 188 197 217 228 228 227 202 165 136 121 118 130 131 136 137 141 150 156 155 159 161 158 156 161 165 163 164 167 163 158 156 158 160 162 164 158 159
213 234 241 245 247 247 226 154 178 232 225 210 229 190 179 174 169 151 131 124 119 118 123 126 129 137 145 147 149 152 163 164 165 165 165 160 157 157 163 167 166 159 158 166
203 219 227 239 243 242 283 150 204 227 153 123 222 156 140 129 106 107 107 104 106 108 111 110 104 97 95 117 130 144 153 160 159 153 153 153 156 160 163 162 158 156 162 171
215 215 221 228 230 218 204 220 224 81 64 74 82 87 99 100 101 102 104 107 110 111 111 113 110 103 90 97 116 124 122 133 130 133 138 144 152 158 158 156 161 164 166 177
217 222 225 221 195 146 178 184 117 98 82 65 64 70 87 108 112 112 112 114 116 119 119 112 111 109 101 98 105 121 119 122 125 128 134 139 143 146 150 155 159 160 165 180
231 240 238 213 176 165 176 138 112 97 89 79 78 87 88 101 111 116 117 116 118 115 111 111 114 112 107 105 103 109 123 140 134 135 142 146 149 147 142 141 153 160 175 183
261 244 241 226 171 151 144 116 119 115 108 98 92 92 93 102 109 113 115 115 114 112 113 116 119 115 112 103 99 102 112 127 128 136 142 143 139 140 138 138 147 160 179 179
251 247 235 227 193 195 163 144 133 135 129 118 107 95 88 96 107 106 108 108 108 111 112 109 105 105 103 102 98 92 94 112 121 125 125 125 131 134 134 132 119 97 135 162